H1 CPF 1 NER 2019 7 31 9 7121 glonass126 H2 1105501 9126 37829 2019 7 31 0 0 0 2019 8 3 23 45 0 900 1 1 0 0 0 H9 10 0 58695 0.00000 0 2825491.659 13396583.854 -21499717.530 10 0 58695 900.00000 0 442380.581 12094128.258 -22433087.919 10 0 58695 1800.00000 0 -2109405.232 10932350.357 -22929849.653 10 0 58695 2700.00000 0 -4770267.607 9947169.381 -22980379.542 10 0 58695 3600.00000 0 -7474959.048 9163618.928 -22583751.706 10 0 58695 4500.00000 0 -10155071.717 8594887.398 -21747751.102 10 0 58695 5400.00000 0 -12741665.402 8241875.420 -20488716.504 10 0 58695 6300.00000 0 -15167925.263 8093288.001 -18831216.304 10 0 58695 7200.00000 0 -17371738.808 8126256.328 -16807563.792 10 0 58695 8100.00000 0 -19298085.095 8307461.765 -14457181.680 10 0 58695 9000.00000 0 -20901137.090 8594713.374 -11825828.517 10 0 58695 9900.00000 0 -22145990.076 8938911.253 -8964702.449 10 0 58695 10800.00000 0 -23009944.903 9286311.674 -5929440.118 10 0 58695 11700.00000 0 -23483293.537 9580997.395 -2779030.549 10 0 58695 12600.00000 0 -23569575.305 9767448.019 425334.314 10 0 58695 13500.00000 0 -23285294.534 9793101.163 3621449.755 10 0 58695 14400.00000 0 -22659112.860 9610795.826 6747305.620 10 0 58695 15300.00000 0 -21730551.427 9180994.528 9742287.173 10 0 58695 16200.00000 0 -20548258.610 8473690.346 12548346.174 10 0 58695 17100.00000 0 -19167916.817 7469918.319 15111119.770 10 0 58695 18000.00000 0 -17649876.652 6162807.557 17380975.897 10 0 58695 18900.00000 0 -16056617.764 4558129.560 19313965.769 10 0 58695 19800.00000 0 -14450142.384 2674319.242 20872665.915 10 0 58695 20700.00000 0 -12889410.033 541967.106 22026894.438 10 0 58695 21600.00000 0 -11427919.747 -1797197.319 22754288.689 10 0 58695 22500.00000 0 -10111539.745 -4291789.767 23040734.032 10 0 58695 23400.00000 0 -8976674.127 -6882662.993 22880636.020 10 0 58695 24300.00000 0 -8048842.127 -9505129.143 22277031.022 10 0 58695 25200.00000 0 -7341728.407 -12091422.234 21241533.064 10 0 58695 26100.00000 0 -6856743.561 -14573300.154 19794117.448 10 0 58695 27000.00000 0 -6583112.930 -16884679.647 17962744.505 10 0 58695 27900.00000 0 -6498489.972 -18964196.036 15782829.653 10 0 58695 28800.00000 0 -6570068.742 -20757581.969 13296568.844 10 0 58695 29700.00000 0 -6756149.052 -22219766.565 10552131.193 10 0 58695 30600.00000 0 -7008088.781 -23316607.448 7602733.298 10 0 58695 31500.00000 0 -7272561.303 -24026182.918 4505612.396 10 0 58695 32400.00000 0 -7494022.707 -24339589.707 1320917.719 10 0 58695 33300.00000 0 -7617284.210 -24261212.179 -1889458.619 10 0 58695 34200.00000 0 -7590080.291 -23808451.046 -5063088.153 10 0 58695 35100.00000 0 -7365522.777 -23010922.478 -8138226.080 10 0 58695 36000.00000 0 -6904335.671 -21909160.990 -11055020.203 10 0 58695 36900.00000 0 -6176774.555 -20552880.633 -13756684.273 10 0 58695 37800.00000 0 -5164147.682 -18998867.905 -16190611.968 10 0 58695 38700.00000 0 -3859872.707 -17308595.428 -18309408.942 10 0 58695 39600.00000 0 -2270022.802 -15545657.372 -20071822.063 10 0 58695 40500.00000 0 -413337.604 -13773135.036 -21443547.302 10 0 58695 41400.00000 0 1679302.883 -12051003.746 -22397900.288 10 0 58695 42300.00000 0 3965920.393 -10433690.342 -22916336.374 10 0 58695 43200.00000 0 6394953.764 -8967883.845 -22988810.306 10 0 58695 44100.00000 0 8907184.842 -7690690.844 -22613968.729 10 0 58695 45000.00000 0 11437994.825 -6628212.530 -21799172.107 10 0 58695 45900.00000 0 13919857.180 -5794602.110 -20560346.039 10 0 58695 46800.00000 0 16284963.351 -5191641.023 -18921665.164 10 0 58695 47700.00000 0 18467871.830 -4808850.397 -16915076.177 10 0 58695 48600.00000 0 20408070.275 -4624131.522 -14579669.547 10 0 58695 49500.00000 0 22052344.091 -4604906.804 -11960912.446 10 0 58695 50400.00000 0 23356852.869 -4709711.608 -9109758.213 10 0 58695 51300.00000 0 24288828.546 -4890168.375 -6081650.033 10 0 58695 52200.00000 0 24827825.061 -5093258.392 -2935438.583 10 0 58695 53100.00000 0 24966468.068 -5263794.182 267764.790 10 0 58695 54000.00000 0 24710674.467 -5346987.150 3465776.703 10 0 58695 54900.00000 0 24079333.708 -5291001.353 6596548.787 10 0 58695 55800.00000 0 23103465.371 -5049385.095 9599369.409 10 0 58695 56700.00000 0 21824889.415 -4583277.427 12416036.798 10 0 58695 57600.00000 0 20294465.663 -3863296.366 14991981.074 10 0 58695 58500.00000 0 18569976.814 -2871029.168 17277313.817 10 0 58695 59400.00000 0 16713743.804 -1600061.842 19227785.629 10 0 58695 60300.00000 0 14790073.000 -56504.276 20805634.056 10 0 58695 61200.00000 0 12862641.382 1741011.529 21980306.420 10 0 58695 62100.00000 0 10991927.941 3761860.985 22729044.584 10 0 58695 63000.00000 0 9232797.323 5964463.256 23037321.273 10 0 58695 63900.00000 0 7632335.273 8297782.657 22899120.060 10 0 58695 64800.00000 0 6228024.850 10703234.277 22317053.994 10 0 58695 65700.00000 0 5046338.331 13116916.393 21302320.480 10 0 58695 66600.00000 0 4101802.690 15472078.515 19874492.819 10 0 58695 67500.00000 0 3396576.986 17701724.085 18061151.658 10 0 58695 68400.00000 0 2920558.988 19741240.913 15897362.385 10 0 58695 69300.00000 0 2652016.455 21530950.691 13425007.367 10 0 58695 70200.00000 0 2558716.647 23018471.873 10691984.732 10 0 58695 71100.00000 0 2599506.705 24160797.374 7751288.053 10 0 58695 72000.00000 0 2726278.488 24925999.849 4659983.961 10 0 58695 72900.00000 0 2886234.919 25294492.543 1478106.960 10 0 58695 73800.00000 0 3024361.830 25259792.016 -1732507.307 10 0 58695 74700.00000 0 3086000.197 24828749.792 -4909427.362 10 0 58695 75600.00000 0 3019409.001 24021242.379 -7990845.838 10 0 58695 76500.00000 0 2778208.993 22869332.013 -10916789.564 10 0 58695 77400.00000 0 2323602.498 21415933.005 -13630295.213 10 0 58695 78300.00000 0 1626273.687 19713039.621 -16078526.719 10 0 58695 79200.00000 0 667887.289 17819590.100 -18213811.814 10 0 58695 80100.00000 0 -557879.167 15799056.884 -19994576.724 10 0 58695 81000.00000 0 -2044814.722 13716864.669 -21386160.342 10 0 58695 81900.00000 0 -3774189.255 11637744.971 -22361491.780 10 0 58695 82800.00000 0 -5715303.234 9623138.508 -22901618.002 10 0 58695 83700.00000 0 -7826550.808 7728754.285 -22996071.458 10 0 58695 84600.00000 0 -10056952.457 6002387.399 -22643070.814 10 0 58695 85500.00000 0 -12348093.485 4482086.485 -21849551.232 10 0 58696 0.00000 0 -14636387.646 3194746.612 -20631024.009 10 0 58696 900.00000 0 -16855571.578 2155185.558 -19011268.454 10 0 58696 1800.00000 0 -18939325.816 1365740.206 -17021862.863 10 0 58696 2700.00000 0 -20823912.830 816399.447 -14701563.331 10 0 58696 3600.00000 0 -22450722.434 485464.855 -12095543.322 10 0 58696 4500.00000 0 -23768617.741 340710.634 -9254508.894 10 0 58696 5400.00000 0 -24735984.149 340991.706 -6233707.222 10 0 58696 6300.00000 0 -25322395.940 438230.684 -3091848.048 10 0 58696 7200.00000 0 -25509831.279 579698.448 110040.470 10 0 58696 8100.00000 0 -25293385.467 710490.830 3309798.883 10 0 58696 9000.00000 0 -24681453.409 776095.904 6445343.188 10 0 58696 9900.00000 0 -23695374.549 724942.768 9455867.406 10 0 58696 10800.00000 0 -22368556.036 510823.840 12283018.728 10 0 58696 11700.00000 0 -20745111.551 95088.225 14872022.618 10 0 58696 12600.00000 0 -18878073.290 -551486.352 17172736.480 10 0 58696 13500.00000 0 -16827252.080 -1447221.930 19140612.228 10 0 58696 14400.00000 0 -14656834.820 -2598531.018 20737550.008 10 0 58696 15300.00000 0 -12432819.031 -3999412.323 21932627.526 10 0 58696 16200.00000 0 -10220390.580 -5631473.213 22702691.900 10 0 58696 17100.00000 0 -8081352.639 -7464478.969 23032803.481 10 0 58696 18000.00000 0 -6071711.654 -9457407.061 22916523.691 10 0 58696 18900.00000 0 -4239519.411 -11559964.005 22356041.668 10 0 58696 19800.00000 0 -2623059.645 -13714503.340 21362137.194 10 0 58696 20700.00000 0 -1249453.679 -15858266.453 19953980.219 10 0 58696 21600.00000 0 -133742.206 -17925854.658 18158770.035 10 0 58696 22500.00000 0 721519.097 -19851830.943 16011220.026 10 0 58696 23400.00000 0 1326133.560 -21573343.937 13552896.740 10 0 58696 24300.00000 0 1701612.618 -23032665.258 10831424.865 10 0 58696 25200.00000 0 1880027.378 -24179534.412 7899572.331 10 0 58696 26100.00000 0 1902410.945 -24973212.783 4814232.435 10 0 58696 27000.00000 0 1816778.922 -25384160.045 1635322.176 10 0 58696 27900.00000 0 1675851.903 -25395261.677 -1575382.047 10 0 58696 28800.00000 0 1534576.665 -25002554.922 -4755448.481 10 0 58696 29700.00000 0 1447551.735 -24215421.544 -7843009.872 10 0 58696 30600.00000 0 1466467.346 -23056238.254 -10777974.666 10 0 58696 31500.00000 0 1637669.441 -21559498.689 -13503204.937 10 0 58696 32400.00000 0 1999952.304 -19770443.331 -15965637.189 10 0 58696 33300.00000 0 2582674.756 -17743254.633 -18117323.337 10 0 58696 34200.00000 0 3404281.040 -15538893.206 -19916370.781 10 0 58696 35100.00000 0 4471290.337 -13222665.959 -21327762.820 10 0 58696 36000.00000 0 5777798.842 -10861628.385 -22324043.130 10 0 58696 36900.00000 0 7305516.458 -8521930.021 -22885850.941 10 0 58696 37800.00000 0 9024337.532 -6266214.228 -23002296.635 10 0 58696 38700.00000 0 10893422.386 -4151180.845 -22671170.724 10 0 58696 39600.00000 0 12862744.757 -2225413.242 -21898982.502 10 0 58696 40500.00000 0 14875040.644 -527559.810 -20700827.982 10 0 58696 41400.00000 0 16868077.159 915055.183 -19100090.024 10 0 58696 42300.00000 0 18777146.389 2087334.567 -17127976.862 10 0 58696 43200.00000 0 20537679.924 2986788.963 -14822908.293 10 0 58696 44100.00000 0 22087874.552 3623381.040 -12229761.757 10 0 58696 45000.00000 0 23371219.123 4018841.798 -9398993.357 10 0 58696 45900.00000 0 24338816.799 4205489.553 -6385651.239 10 0 58696 46800.00000 0 24951405.546 4224603.231 -3248300.900 10 0 58696 47700.00000 0 25180992.421 4124420.176 -47883.811 10 0 58696 48600.00000 0 25012033.571 3957844.423 3153468.088 10 0 58696 49500.00000 0 24442111.011 3779963.340 6293638.675 10 0 58696 50400.00000 0 23482078.415 3645478.337 9311730.979 10 0 58696 51300.00000 0 22155670.439 3606158.682 12149244.213 10 0 58696 52200.00000 0 20498592.476 3708426.157 14751201.906 10 0 58696 53100.00000 0 18557129.314 3991172.467 17067209.599 10 0 58696 54000.00000 0 16386331.003 4483901.304 19052422.392 10 0 58696 54900.00000 0 14047851.408 5205273.205 20668404.467 10 0 58696 55800.00000 0 11607529.160 6162114.375 21883864.903 10 0 58696 56700.00000 0 9132810.810 7348931.356 22675256.598 10 0 58696 57600.00000 0 6690122.280 8747952.468 23027227.594 10 0 58696 58500.00000 0 4342296.573 10329695.160 22932916.736 10 0 58696 59400.00000 0 2146163.198 12054036.792 22394088.321 10 0 58696 60300.00000 0 150397.990 13871745.658 21421103.100 10 0 58696 61200.00000 0 -1606278.486 15726409.893 20032725.780 10 0 58696 62100.00000 0 -3096480.152 17556685.443 18255771.981 10 0 58696 63000.00000 0 -4305055.664 19298770.757 16124600.397 10 0 58696 63900.00000 0 -5229472.627 20889005.973 13680458.799 10 0 58696 64800.00000 0 -5879670.127 22266488.810 10970695.289 10 0 58696 65700.00000 0 -6277385.943 23375598.001 8047848.892 10 0 58696 66600.00000 0 -6454986.723 24168318.354 4968636.288 10 0 58696 67500.00000 0 -6453850.525 24606269.333 1792853.725 10 0 58696 68400.00000 0 -6322370.088 24662350.979 -1417784.791 10 0 58696 69300.00000 0 -6113661.564 24321936.736 -4600850.196 10 0 58696 70200.00000 0 -5883076.212 23583561.711 -7694418.081 10 0 58696 71100.00000 0 -5685621.244 22459076.046 -10638280.938 10 0 58696 72000.00000 0 -5573400.078 20973255.819 -13375128.317 10 0 58696 72900.00000 0 -5593181.655 19162886.880 -15851671.001 10 0 58696 73800.00000 0 -5784203.037 17075359.433 -18019686.419 10 0 58696 74700.00000 0 -6176299.581 14766832.039 -19836964.129 10 0 58696 75600.00000 0 -6788443.008 12300041.849 -21268132.483 10 0 58696 76500.00000 0 -7627750.256 9741852.813 -22285350.099 10 0 58696 77400.00000 0 -8689005.889 7160644.560 -22868848.574 10 0 58696 78300.00000 0 -9954718.983 4623651.123 -23007316.053 10 0 58696 79200.00000 0 -11395712.707 2194360.512 -22698114.451 10 0 58696 80100.00000 0 -12972222.229 -69916.554 -21947326.444 10 0 58696 81000.00000 0 -14635455.074 -2120207.936 -20769631.710 10 0 58696 81900.00000 0 -16329548.588 -3917682.132 -19188015.179 10 0 58696 82800.00000 0 -17993842.317 -5435016.955 -17233313.313 10 0 58696 83700.00000 0 -19565369.922 -6657279.225 -14943607.567 10 0 58696 84600.00000 0 -20981465.949 -7582280.405 -12363477.086 10 0 58696 85500.00000 0 -22182377.911 -8220395.130 -9543125.553 10 0 58697 0.00000 0 -23113773.980 -8593852.298 -6537399.564 10 0 58697 900.00000 0 -23729040.719 -8735530.483 -3404717.565 10 0 58697 1800.00000 0 -23991275.273 -8687310.229 -205931.658 10 0 58697 2700.00000 0 -23874886.930 -8498054.287 2996856.509 10 0 58697 3600.00000 0 -23366742.929 -8221302.475 6141501.502 10 0 58697 4500.00000 0 -22466809.432 -7912779.378 9167018.151 10 0 58697 5400.00000 0 -21188261.797 -7627820.873 12014760.432 10 0 58697 6300.00000 0 -19557059.648 -7418828.433 14629552.537 10 0 58697 7200.00000 0 -17611004.848 -7332858.658 16960750.540 10 0 58697 8100.00000 0 -15398321.723 -7409449.482 18963214.830 10 0 58697 9000.00000 0 -12975818.520 -7678774.354 20598175.348 10 0 58697 9900.00000 0 -10406706.257 -8160201.759 21833973.834 10 0 58697 10800.00000 0 -7758164.796 -8861320.503 22646669.781 10 0 58697 11700.00000 0 -5098756.182 -9777471.815 23020499.254 10 0 58697 12600.00000 0 -2495791.354 -10891808.336 22948178.392 10 0 58697 13500.00000 0 -12758.018 -12175878.345 22431046.095 10 0 58697 14400.00000 0 2293085.107 -13590711.922 21479043.135 10 0 58697 15300.00000 0 4372849.114 -15088365.011 20110527.681 10 0 58697 16200.00000 0 6187803.146 -16613858.247 18351930.060 10 0 58697 17100.00000 0 7710736.631 -18107431.007 16237252.368 10 0 58697 18000.00000 0 8926839.424 -19507017.498 13807421.398 10 0 58697 18900.00000 0 9834063.580 -20750842.205 11109506.195 10 0 58697 19800.00000 0 10442951.910 -21780026.373 8195814.178 10 0 58697 20700.00000 0 10775940.558 -22541096.139 5122882.517 10 0 58697 21600.00000 0 10866165.056 -22988286.504 1950383.701 10 0 58697 22500.00000 0 10755820.248 -23085543.368 -1260033.709 10 0 58697 23400.00000 0 10494143.560 -22808138.106 -4445946.363 10 0 58697 24300.00000 0 10135107.284 -22143825.273 -7545375.622 10 0 58697 25200.00000 0 9734918.186 -21093493.156 -10498000.800 10 0 58697 26100.00000 0 9349431.127 -19671278.299 -13246341.510 10 0 58697 27000.00000 0 9031587.257 -17904137.913 -15736885.161 10 0 58697 27900.00000 0 8828986.357 -15830897.040 -17921136.777 10 0 58697 28800.00000 0 8781697.208 -13500809.792 -19756569.830 10 0 58697 29700.00000 0 8920399.663 -10971694.466 -21207459.127 10 0 58697 30600.00000 0 9264937.880 -8307720.348 -22245579.228 10 0 58697 31500.00000 0 9823346.579 -5576938.719 -22850754.678 10 0 58697 32400.00000 0 10591391.986 -2848661.093 -23011251.562 10 0 58697 33300.00000 0 11552647.207 -190793.958 -22724002.973 10 0 58697 34200.00000 0 12679099.096 2332759.011 -21994664.386 10 0 58697 35100.00000 0 13932261.122 4664519.463 -20837498.236 10 0 58697 36000.00000 0 15264745.426 6755581.357 -19275090.301 10 0 58697 36900.00000 0 16622227.773 8567393.822 -17337903.753 10 0 58697 37800.00000 0 17945722.574 10073106.802 -15063679.885 10 0 58697 38700.00000 0 19174072.102 11258424.829 -12496697.406 10 0 58697 39600.00000 0 20246544.900 12121934.930 -9686905.122 10 0 58697 40500.00000 0 21105433.905 12674896.860 -6688945.168 10 0 58697 41400.00000 0 21698544.764 12940506.473 -3561086.154 10 0 58697 42300.00000 0 21981469.571 12952665.065 -364087.455 10 0 58697 43200.00000 0 21919550.339 12754308.316 2839982.913 10 0 58697 44100.00000 0 21489449.729 12395366.799 5988953.538 10 0 58697 45000.00000 0 20680263.144 11930445.255 9021754.263 10 0 58697 45900.00000 0 19494125.682 11416319.433 11879596.834 10 0 58697 46800.00000 0 17946288.604 10909356.572 14507108.834 10 0 58697 47700.00000 0 16064662.206 10462968.428 16853399.274 10 0 58697 48600.00000 0 13888844.083 10125204.017 18873035.870 10 0 58697 49500.00000 0 11468672.978 9936583.070 20526915.999 10 0 58697 50400.00000 0 8862367.937 9928260.844 21783015.349 10 0 58697 51300.00000 0 6134329.291 10120600.977 22617000.885 10 0 58697 52200.00000 0 3352691.602 10522216.040 23012697.149 10 0 58697 53100.00000 0 586728.873 11129515.985 22962397.561 10 0 58697 54000.00000 0 -2095781.933 11926783.755 22467015.127 10 0 58697 54900.00000 0 -4631131.329 12886775.569 21536069.626 10 0 58697 55800.00000 0 -6962076.473 13971821.706 20187511.174 10 0 58697 56700.00000 0 -9039970.872 15135382.880 18447382.814 10 0 58697 57600.00000 0 -10826537.210 16323998.326 16349327.617 10 0 58697 58500.00000 0 -12295210.244 17479545.097 13933948.635 10 0 58697 59400.00000 0 -13431994.326 18541714.839 11248032.849 10 0 58697 60300.00000 0 -14235800.004 19450604.652 8343652.922 10 0 58697 61200.00000 0 -14718245.631 20149313.364 5277163.305 10 0 58697 62100.00000 0 -14902932.374 20586433.658 2108109.538 10 0 58697 63000.00000 0 -14824223.142 20718334.396 -1101928.380 10 0 58697 63900.00000 0 -14525576.977 20511135.766 -4290535.802 10 0 58697 64800.00000 0 -14057509.553 19942292.537 -7395682.679 10 0 58697 65700.00000 0 -13475266.452 19001717.060 -10356937.743 10 0 58697 66600.00000 0 -12836308.296 17692392.991 -13116652.998 10 0 58697 67500.00000 0 -12197715.029 16030452.370 -15621094.502 10 0 58697 68400.00000 0 -11613620.123 14044711.351 -17821496.544 10 0 58697 69300.00000 0 -11132784.197 11775683.036 -19675017.842 10 0 58697 70200.00000 0 -10796411.574 9274107.952 -21145580.637 10 0 58697 71100.00000 0 -10636302.792 6599063.110 -22204576.082 10 0 58697 72000.00000 0 -10673421.654 3815728.424 -22831422.021 10 0 58697 72900.00000 0 -10916937.675 992903.534 -23013962.521 10 0 58697 73800.00000 0 -11363784.445 -1799621.599 -22748701.600 10 0 58697 74700.00000 0 -11998752.503 -4493732.846 -22040866.961 10 0 58697 75600.00000 0 -12795112.606 -7025584.138 -20904302.912 10 0 58697 76500.00000 0 -13715742.839 -9338008.325 -19361194.864 10 0 58697 77400.00000 0 -14714711.725 -11382646.907 -17441631.180 10 0 58697 78300.00000 0 -15739250.194 -13121710.907 -15183011.171 10 0 58697 79200.00000 0 -16732028.940 -14529300.700 -12629311.056 10 0 58697 80100.00000 0 -17633644.752 -15592231.101 -9830222.509 10 0 58697 81000.00000 0 -18385210.655 -16310328.946 -6840180.865 10 0 58697 81900.00000 0 -18930940.370 -16696192.552 -3717302.252 10 0 58697 82800.00000 0 -19220617.874 -16774424.963 -522250.764 10 0 58697 83700.00000 0 -19211847.834 -16580375.065 2682941.899 10 0 58697 84600.00000 0 -18871992.021 -16158441.196 5836081.098 10 0 58697 85500.00000 0 -18179710.171 -15560010.034 8876014.466 10 0 58698 0.00000 0 -17126040.587 -14841118.679 11743814.232 10 0 58698 900.00000 0 -15714974.652 -14059939.226 14383914.176 10 0 58698 1800.00000 0 -13963502.335 -13274191.586 16745178.737 10 0 58698 2700.00000 0 -11901124.597 -12538594.354 18781885.265 10 0 58698 3600.00000 0 -9568854.564 -11902459.433 20454600.559 10 0 58698 4500.00000 0 -7017747.240 -11407531.771 21730935.874 10 0 58698 5400.00000 0 -4307018.535 -11086163.871 22586166.855 10 0 58698 6300.00000 0 -1501830.361 -10959901.153 23003707.299 10 0 58698 7200.00000 0 1329167.584 -11038536.995 22975428.268 10 0 58698 8100.00000 0 4116438.987 -11319676.926 22501816.834 10 0 58698 9000.00000 0 6792198.906 -11788830.313 21591971.390 10 0 58698 9900.00000 0 9292980.641 -12420026.256 20263433.247 10 0 58698 10800.00000 0 11562026.475 -13176928.621 18541857.085 10 0 58698 11700.00000 0 13551404.182 -14014404.438 16460525.543 10 0 58698 12600.00000 0 15223762.020 -14880480.881 14059716.184 10 0 58698 13500.00000 0 16553649.720 -15718609.561 11385931.818 10 0 58698 14400.00000 0 17528350.556 -16470143.627 8491007.885 10 0 58698 15300.00000 0 18148189.681 -17076923.750 5431113.323 10 0 58698 16200.00000 0 18426305.731 -17483863.940 2265663.643 10 0 58698 17100.00000 0 18387895.202 -17641427.577 -943832.980 10 0 58698 18000.00000 0 18068961.276 -17507888.192 -4134973.966 10 0 58698 18900.00000 0 17514620.017 -17051278.206 -7245681.200 10 0 58698 19800.00000 0 16777035.654 -16250941.712 -10215416.060 10 0 58698 20700.00000 0 15913072.715 -15098624.085 -12986365.972 10 0 58698 21600.00000 0 14981764.880 -13599050.679 -15504578.414 10 0 58698 22500.00000 0 14041708.365 -11769968.601 -17721019.418 10 0 58698 23400.00000 0 13148490.801 -9641648.407 -19592535.071 10 0 58698 24300.00000 0 12352265.029 -7255865.440 -21082696.811 10 0 58698 25200.00000 0 11695570.873 -4664402.587 -22162513.731 10 0 58698 26100.00000 0 11211497.279 -1927136.544 -22810997.902 10 0 58698 27000.00000 0 10922262.494 890212.946 -23015571.860 10 0 58698 27900.00000 0 10838272.124 3718577.273 -22772310.613 10 0 58698 28800.00000 0 10957694.464 6488172.763 -22086013.765 10 0 58698 29700.00000 0 11266570.520 9131164.715 -20970106.767 10 0 58698 30600.00000 0 11739453.483 11584251.112 -19446373.593 10 0 58698 31500.00000 0 12340550.003 13791058.849 -17544526.368 10 0 58698 32400.00000 0 13025314.406 15704253.437 -15301620.669 10 0 58698 33300.00000 0 13742427.913 17287275.144 -12761328.125 10 0 58698 34200.00000 0 14436078.690 18515630.268 -9973080.836 10 0 58698 35100.00000 0 15048445.849 19377684.998 -6991104.587 10 0 58698 36000.00000 0 15522282.086 19874930.247 -3873359.981 10 0 58698 36900.00000 0 15803485.442 20021708.019 -680412.589 10 0 58698 37800.00000 0 15843551.360 19844412.531 2525745.574 10 0 58698 38700.00000 0 15601801.354 19380201.319 5682900.010 10 0 58698 39600.00000 0 15047294.181 18675271.948 8729819.430 10 0 58698 40500.00000 0 14160338.959 17782778.021 11607439.744 10 0 58698 41400.00000 0 12933546.457 16760473.007 14260003.551 10 0 58698 42300.00000 0 11372374.312 15668181.406 16636133.337 10 0 58698 43200.00000 0 9495142.989 14565203.667 18689818.295 10 0 58698 44100.00000 0 7332521.343 13507763.498 20381296.493 10 0 58698 45000.00000 0 4926502.585 12546604.183 21677816.237 10 0 58698 45900.00000 0 2328912.314 11724833.874 22554262.956 10 0 58698 46800.00000 0 -400490.597 11076109.313 22993640.401 10 0 58698 47700.00000 0 -3196242.783 10623233.271 22987397.551 10 0 58698 48600.00000 0 -5989643.998 10377223.792 22535595.355 10 0 58698 49500.00000 0 -8711362.975 10336893.869 21646910.133 10 0 58698 50400.00000 0 -11294075.012 10488959.143 20338473.220 10 0 58698 51300.00000 0 -13675023.403 10808669.381 18635549.264 10 0 58698 52200.00000 0 -15798399.640 11260937.836 16571058.349 10 0 58698 53100.00000 0 -17617444.221 11801921.787 14184950.041 10 0 58698 54000.00000 0 -19096181.246 12380988.602 11523440.168 10 0 58698 54900.00000 0 -20210714.640 12942985.258 8638123.943 10 0 58698 55800.00000 0 -20950031.718 13430716.067 5584981.675 10 0 58698 56700.00000 0 -21316280.254 13787524.183 2423295.710 10 0 58698 57600.00000 0 -21324507.095 13959867.516 -785500.709 10 0 58698 58500.00000 0 -21001869.003 13899779.410 -3979020.090 10 0 58698 59400.00000 0 -20386348.835 13567108.908 -7095139.159 10 0 58698 60300.00000 0 -19525031.203 12931444.361 -10073214.712 10 0 58698 61200.00000 0 -18472010.628 11973637.430 -12855272.172 10 0 58698 62100.00000 0 -17286020.964 10686861.303 -15387142.781 10 0 58698 63000.00000 0 -16027886.783 9077156.707 -17619526.354 10 0 58698 63900.00000 0 -14757904.989 7163441.142 -19508958.050 10 0 58698 64800.00000 0 -13533267.823 4976979.459 -21018659.823 10 0 58698 65700.00000 0 -12405636.454 2560336.843 -22119259.638 10 0 58698 66600.00000 0 -11418967.824 -34142.831 -22789364.321 10 0 58698 67500.00000 0 -10607686.358 -2746270.295 -23015975.040 10 0 58698 68400.00000 0 -9995277.345 -5510275.605 -22794737.570 10 0 58698 69300.00000 0 -9593360.779 -8257310.081 -22130022.833 10 0 58698 70200.00000 0 -9401283.904 -10918081.470 -21034836.516 10 0 58698 71100.00000 0 -9406248.760 -13425512.892 -19530559.919 10 0 58698 72000.00000 0 -9583968.318 -15717315.052 -17646527.410 10 0 58698 72900.00000 0 -9899822.483 -17738365.075 -15419449.055 10 0 58698 73800.00000 0 -10310464.134 -19442793.455 -12892689.916 10 0 58698 74700.00000 0 -10765806.426 -20795692.818 -10115420.402 10 0 58698 75600.00000 0 -11211306.516 -21774378.216 -7141654.519 10 0 58698 76500.00000 0 -11590448.447 -22369147.536 -4029195.062 10 0 58698 77400.00000 0 -11847319.628 -22583511.521 -838506.736 10 0 58698 78300.00000 0 -11929171.541 -22433885.321 2368460.503 10 0 58698 79200.00000 0 -11788856.115 -21948756.032 5529474.720 10 0 58698 80100.00000 0 -11387034.687 -21167362.564 8583228.161 10 0 58698 81000.00000 0 -10694066.221 -20137944.553 11470522.840 10 0 58698 81900.00000 0 -9691495.070 -18915634.790 14135412.735 10 0 58698 82800.00000 0 -8373075.607 -17560084.267 16526280.718 10 0 58698 83700.00000 0 -6745290.398 -16132919.747 18596830.063 10 0 58698 84600.00000 0 -4827339.734 -14695140.228 20306972.147 10 0 58698 85500.00000 0 -2650602.329 -13304560.931 21623594.109 99